GAP2239 RPVA-RPVM

Flight info

Callsign GAP2239
Flight time 0h 29m
Altitude 16000
Route LARYO5R LARYO LARYO3N
Aircraft DH8D/M-SDE2E3FGRY/H

Departure

Time 2026-04-27 13:44
Airport Daniel Z. Romualdez Airport (RPVA)

Arrival

Time 2026-04-27 14:14
Airport Mactan Cebu International Airport (RPVM)
Time Latitude Longitude Altitude Speed Heading
2026-04-27 13:34 11.22635 125.02649 22 ft 0 kts 317°
2026-04-27 13:40 11.22641 125.02649 21 ft 1 kts 26°
2026-04-27 13:40 11.22641 125.02666 21 ft 3 kts 117°
2026-04-27 13:41 11.22607 125.02685 21 ft 7 kts 164°
2026-04-27 13:41 11.22568 125.02721 22 ft 8 kts 111°
2026-04-27 13:41 11.22539 125.02758 22 ft 6 kts 170°
2026-04-27 13:41 11.22476 125.02756 22 ft 11 kts 183°
2026-04-27 13:42 11.22376 125.02749 22 ft 16 kts 184°
2026-04-27 13:42 11.22242 125.02740 22 ft 20 kts 183°
2026-04-27 13:42 11.22090 125.02730 23 ft 22 kts 182°
2026-04-27 13:42 11.21951 125.02721 23 ft 17 kts 185°
2026-04-27 13:43 11.21849 125.02732 23 ft 9 kts 163°
2026-04-27 13:43 11.21806 125.02729 23 ft 3 kts 225°
2026-04-27 13:43 11.21807 125.02713 23 ft 2 kts 338°
2026-04-27 13:43 11.21834 125.02713 23 ft 9 kts
2026-04-27 13:44 11.22162 125.02735 23 ft 92 kts
2026-04-27 13:44 11.23047 125.02792 27 ft 155 kts
2026-04-27 13:44 11.24172 125.02879 406 ft 167 kts
2026-04-27 13:44 11.25377 125.02973 986 ft 177 kts
2026-04-27 13:45 11.26611 125.03059 1631 ft 182 kts
2026-04-27 13:45 11.27889 125.02915 2193 ft 195 kts 338°
2026-04-27 13:45 11.28788 125.01864 2696 ft 207 kts 294°
2026-04-27 13:45 11.29218 125.00478 3283 ft 209 kts 288°
2026-04-27 13:46 11.29598 124.99046 3844 ft 212 kts 287°
2026-04-27 13:46 11.29975 124.97580 4404 ft 214 kts 287°
2026-04-27 13:46 11.30342 124.96135 4939 ft 215 kts 286°
2026-04-27 13:46 11.30716 124.94645 5473 ft 217 kts 286°
2026-04-27 13:47 11.31089 124.93156 5996 ft 219 kts 285°
2026-04-27 13:47 11.31462 124.91654 6506 ft 222 kts 285°
2026-04-27 13:47 11.31838 124.90140 7033 ft 221 kts 285°
2026-04-27 13:47 11.32219 124.88601 7481 ft 224 kts 285°
2026-04-27 13:48 11.32597 124.87069 7946 ft 226 kts 285°
2026-04-27 13:48 11.32980 124.85519 8415 ft 228 kts 285°
2026-04-27 13:48 11.33363 124.83963 8898 ft 227 kts 285°
2026-04-27 13:48 11.33746 124.82407 9309 ft 230 kts 285°
2026-04-27 13:49 11.33876 124.80798 9732 ft 231 kts 257°
2026-04-27 13:49 11.33219 124.79308 10082 ft 233 kts 239°
2026-04-27 13:49 11.32400 124.77887 10522 ft 233 kts 239°
2026-04-27 13:49 11.31574 124.76453 10954 ft 233 kts 239°
2026-04-27 13:50 11.30745 124.75015 11318 ft 237 kts 239°
2026-04-27 13:50 11.29911 124.73563 11707 ft 238 kts 239°
2026-04-27 13:50 11.29086 124.72127 12111 ft 238 kts 239°
2026-04-27 13:50 11.28245 124.70661 12472 ft 239 kts 239°
2026-04-27 13:51 11.27408 124.69200 12816 ft 241 kts 239°
2026-04-27 13:51 11.26567 124.67732 13201 ft 240 kts 239°
2026-04-27 13:51 11.25715 124.66246 13523 ft 241 kts 239°
2026-04-27 13:51 11.24875 124.64777 13829 ft 244 kts 240°
2026-04-27 13:52 11.24019 124.63281 14189 ft 244 kts 240°
2026-04-27 13:52 11.23163 124.61786 14496 ft 245 kts 240°
2026-04-27 13:52 11.22307 124.60291 14801 ft 246 kts 240°
2026-04-27 13:52 11.21437 124.58770 15074 ft 249 kts 240°
2026-04-27 13:53 11.19693 124.55723 15672 ft 251 kts 240°
2026-04-27 13:53 11.18789 124.54144 15807 ft 264 kts 240°
2026-04-27 13:53 11.17843 124.52490 15856 ft 285 kts 240°
2026-04-27 13:54 11.16785 124.50644 15875 ft 314 kts 240°
2026-04-27 13:54 11.15642 124.48650 15874 ft 339 kts 240°
2026-04-27 13:54 11.14422 124.46526 15874 ft 358 kts 240°
2026-04-27 13:54 11.13137 124.44294 15865 ft 367 kts 240°
2026-04-27 13:55 11.11837 124.42035 15849 ft 373 kts 240°
2026-04-27 13:55 11.10524 124.39752 15845 ft 377 kts 240°
2026-04-27 13:55 11.09200 124.37450 15842 ft 380 kts 240°
2026-04-27 13:55 11.07845 124.35159 15830 ft 375 kts 237°
2026-04-27 13:56 11.06004 124.33292 15857 ft 369 kts 216°
2026-04-27 13:56 11.03896 124.31782 15829 ft 372 kts 215°
2026-04-27 13:56 11.01766 124.30271 15827 ft 372 kts 214°
2026-04-27 13:56 10.99640 124.28770 15831 ft 372 kts 214°
2026-04-27 13:57 10.97499 124.27259 15826 ft 372 kts 214°
2026-04-27 13:57 10.95356 124.25745 15822 ft 373 kts 214°
2026-04-27 13:57 10.93144 124.24395 15810 ft 373 kts 205°
2026-04-27 13:57 10.90753 124.23371 15808 ft 374 kts 201°
2026-04-27 13:58 10.88307 124.22357 15806 ft 370 kts 201°
2026-04-27 13:58 10.85946 124.21383 15806 ft 365 kts 201°
2026-04-27 13:58 10.83676 124.20234 15795 ft 361 kts 212°
2026-04-27 13:58 10.81655 124.18777 15802 ft 358 kts 216°
2026-04-27 13:59 10.79635 124.17274 15800 ft 355 kts 216°
2026-04-27 13:59 10.77648 124.15788 15804 ft 359 kts 216°
2026-04-27 13:59 10.75611 124.14259 15820 ft 363 kts 216°
2026-04-27 13:59 10.73569 124.12726 15821 ft 365 kts 216°
2026-04-27 14:00 10.71514 124.11181 15818 ft 367 kts 216°
2026-04-27 14:00 10.69462 124.09637 15817 ft 365 kts 216°
2026-04-27 14:00 10.67425 124.08106 15723 ft 367 kts 216°
2026-04-27 14:00 10.65352 124.06547 15345 ft 368 kts 216°
2026-04-27 14:01 10.63299 124.05003 14894 ft 364 kts 216°
2026-04-27 14:01 10.61273 124.03481 14450 ft 361 kts 216°
2026-04-27 14:01 10.59266 124.01971 13996 ft 357 kts 216°
2026-04-27 14:01 10.57291 124.00485 13556 ft 355 kts 216°
2026-04-27 14:02 10.55297 123.98985 13116 ft 353 kts 216°
2026-04-27 14:02 10.53337 123.97510 12795 ft 348 kts 216°
2026-04-27 14:02 10.51402 123.96053 12385 ft 347 kts 216°
2026-04-27 14:02 10.49441 123.94578 11943 ft 346 kts 216°
2026-04-27 14:03 10.47522 123.93134 11501 ft 338 kts 216°
2026-04-27 14:03 10.45689 123.91760 11086 ft 324 kts 215°
2026-04-27 14:03 10.43912 123.90423 10691 ft 311 kts 215°
2026-04-27 14:03 10.42197 123.89132 10313 ft 299 kts 215°
2026-04-27 14:04 10.40566 123.87904 9946 ft 288 kts 215°
2026-04-27 14:04 10.38964 123.86697 9576 ft 279 kts 214°
2026-04-27 14:04 10.37423 123.85535 9241 ft 273 kts 215°
2026-04-27 14:04 10.35918 123.84400 8906 ft 269 kts 214°
2026-04-27 14:05 10.34413 123.83267 8565 ft 265 kts 215°
2026-04-27 14:05 10.32941 123.82160 8230 ft 262 kts 215°
2026-04-27 14:05 10.31480 123.81061 7910 ft 259 kts 215°
2026-04-27 14:05 10.30043 123.79979 7587 ft 256 kts 215°
2026-04-27 14:06 10.28625 123.78913 7260 ft 254 kts 215°
2026-04-27 14:06 10.27203 123.77844 6944 ft 251 kts 215°
2026-04-27 14:06 10.25807 123.76794 6628 ft 249 kts 215°
2026-04-27 14:06 10.24383 123.75780 6208 ft 251 kts 207°
2026-04-27 14:07 10.22715 123.75461 5775 ft 242 kts 167°
2026-04-27 14:07 10.21253 123.76219 5508 ft 237 kts 136°
2026-04-27 14:07 10.20016 123.77377 5206 ft 240 kts 133°
2026-04-27 14:07 10.18836 123.78541 4900 ft 235 kts 132°
2026-04-27 14:08 10.17688 123.79688 4603 ft 225 kts 132°
2026-04-27 14:08 10.16623 123.80798 4240 ft 219 kts 125°
2026-04-27 14:08 10.16174 123.82198 3802 ft 208 kts 81°
2026-04-27 14:08 10.16784 123.83483 3561 ft 206 kts 51°
2026-04-27 14:09 10.17754 123.84586 3288 ft 209 kts 47°
2026-04-27 14:09 10.18735 123.85632 3004 ft 200 kts 46°
2026-04-27 14:09 10.19688 123.86631 2741 ft 195 kts 46°
2026-04-27 14:09 10.20634 123.87612 2484 ft 191 kts 45°
2026-04-27 14:10 10.21543 123.88546 2229 ft 176 kts 45°
2026-04-27 14:10 10.22341 123.89362 2025 ft 153 kts 45°
2026-04-27 14:10 10.23039 123.90079 1836 ft 130 kts 45°
2026-04-27 14:10 10.23640 123.90704 1681 ft 121 kts 46°
2026-04-27 14:11 10.24229 123.91325 1517 ft 121 kts 46°
2026-04-27 14:11 10.24820 123.91940 1359 ft 122 kts 45°
2026-04-27 14:11 10.25426 123.92564 1198 ft 124 kts 45°
2026-04-27 14:11 10.26032 123.93182 1027 ft 122 kts 45°
2026-04-27 14:12 10.26634 123.93794 865 ft 121 kts 45°
2026-04-27 14:12 10.27219 123.94408 724 ft 121 kts 45°
2026-04-27 14:12 10.27815 123.95010 597 ft 121 kts 44°
2026-04-27 14:12 10.28431 123.95624 456 ft 124 kts 44°
2026-04-27 14:13 10.29054 123.96233 264 ft 124 kts 44°
2026-04-27 14:13 10.29659 123.96842 99 ft 122 kts 44°
2026-04-27 14:13 10.30259 123.97444 38 ft 110 kts 44°
2026-04-27 14:13 10.30671 123.97858 38 ft 63 kts 45°
2026-04-27 14:14 10.30923 123.98113 37 ft 41 kts 45°
2026-04-27 14:14 10.31097 123.98274 37 ft 27 kts 33°
2026-04-27 14:14 10.31245 123.98333 37 ft 18 kts 18°
2026-04-27 14:14 10.31351 123.98346 38 ft 12 kts 342°
2026-04-27 14:15 10.31418 123.98297 38 ft 12 kts 317°
2026-04-27 14:15 10.31484 123.98231 38 ft 13 kts 314°
2026-04-27 14:15 10.31548 123.98164 38 ft 12 kts 314°
2026-04-27 14:15 10.31606 123.98120 38 ft 7 kts 345°
2026-04-27 14:16 10.31648 123.98133 38 ft 6 kts 38°
2026-04-27 14:16 10.31672 123.98153 38 ft 3 kts 30°
2026-04-27 14:16 10.31691 123.98151 38 ft 4 kts 327°
2026-04-27 14:16 10.31713 123.98130 38 ft 1 kts 314°
2026-04-27 14:17 10.31718 123.98124 38 ft 0 kts 314°